Simultaneous Nadir Overpasses (SNOs) Predictions

Prediction of SNOs between GOES-15 and METOP-A Satellite Orbit:

Table of predicted SNOs for the next 14.0 days since TLE Epoch: 3/19/2012
Index Date Time (GOES-15) GOES-15 Lat,Lon METOP-A Lat,Lon Distance(km) Time Diff (sec)
1 03/19/2012 18:28:42 -0.06,-135.25 -0.27,-134.36 101.70 80
2 03/21/2012 06:45:02 0.06,-135.18 -0.78,-138.94 428.84 80
3 03/22/2012 06:27:02 0.06,-135.16 0.33,-133.95 138.21 80
4 03/23/2012 18:43:15 -0.06,-135.16 0.66,-138.51 381.45 80
5 03/24/2012 18:25:15 -0.06,-135.13 -0.45,-133.52 185.13 80
6 03/26/2012 06:41:34 0.07,-135.06 -0.60,-138.10 346.71 80
7 03/27/2012 06:23:35 0.07,-135.03 0.52,-133.11 219.43 80
8 03/28/2012 18:39:46 -0.08,-135.02 0.54,-137.66 301.55 80
9 03/29/2012 18:21:47 -0.08,-134.98 -0.58,-132.66 264.13 80
10 03/31/2012 06:38:06 0.09,-134.89 -0.47,-137.25 269.00 80
11 04/01/2012 06:20:07 0.09,-134.86 0.65,-132.25 296.41 80




NCC Satellite Simultaneous Nadir Overpasses (SNOs) Prediction Service
